Time,TemperatureF,DewpointF,PressureIn,WindDirection,WindDirectionDegrees,WindSpeedMPH,WindSpeedGustMPH,Humidity,HourlyPrecipIn,Conditions,Clouds,dailyrainin,SoftwareType,DateUTC
2014-04-19 00:00:00,54.9,40.8,30.15,North,360,6.0,6.0,59,0.00,,,0.00,Wunderground v.1.15,2014-04-19 04:00:00,
2014-04-19 00:05:00,55.4,41.3,30.15,North,360,5.0,6.0,59,0.00,,,0.00,Wunderground v.1.15,2014-04-19 04:05:00,
2014-04-19 00:10:00,55.6,41.0,30.15,North,360,5.0,5.0,58,0.00,,,0.00,Wunderground v.1.15,2014-04-19 04:10:00,
2014-04-19 00:15:00,55.7,41.1,30.15,North,360,5.0,5.0,58,0.00,,,0.00,Wunderground v.1.15,2014-04-19 04:15:00,
2014-04-19 00:20:00,55.6,41.0,30.15,North,360,5.0,5.0,58,0.00,,,0.00,Wunderground v.1.15,2014-04-19 04:20:00,
2014-04-19 00:30:00,55.3,40.8,30.16,North,360,5.0,6.0,58,0.00,,,0.00,Wunderground v.1.15,2014-04-19 04:30:00,
2014-04-19 00:35:00,55.2,40.7,30.16,North,360,5.0,6.0,58,0.00,,,0.00,Wunderground v.1.15,2014-04-19 04:35:00,
2014-04-19 00:40:00,55.0,40.9,30.16,North,360,5.0,6.0,59,0.00,,,0.00,Wunderground v.1.15,2014-04-19 04:40:00,
2014-04-19 00:45:00,54.9,40.4,30.16,North,9,6.0,6.0,58,0.00,,,0.00,Wunderground v.1.15,2014-04-19 04:45:00,
2014-04-19 00:50:00,54.9,39.9,30.16,North,5,7.0,7.0,57,0.00,,,0.00,Wunderground v.1.15,2014-04-19 04:50:00,
2014-04-19 00:55:00,55.1,40.1,30.16,North,5,7.0,8.0,57,0.00,,,0.00,Wunderground v.1.15,2014-04-19 04:55:00,
2014-04-19 01:00:00,55.2,39.8,30.16,North,5,7.0,7.0,56,0.00,,,0.00,Wunderground v.1.15,2014-04-19 05:00:00,
2014-04-19 01:10:00,55.3,39.4,30.16,North,5,8.0,10.0,55,0.00,,,0.00,Wunderground v.1.15,2014-04-19 05:10:00,
2014-04-19 01:15:00,55.3,39.4,30.16,NNE,14,8.0,11.0,55,0.00,,,0.00,Wunderground v.1.15,2014-04-19 05:15:00,
2014-04-19 01:25:00,55.1,39.2,30.16,North,5,9.0,10.0,55,0.00,,,0.00,Wunderground v.1.15,2014-04-19 05:25:00,
2014-04-19 01:30:00,55.0,39.1,30.16,North,9,9.0,10.0,55,0.00,,,0.00,Wunderground v.1.15,2014-04-19 05:30:00,
2014-04-19 01:40:00,54.5,39.6,30.16,North,11,8.0,8.0,57,0.00,,,0.00,Wunderground v.1.15,2014-04-19 05:40:00,
2014-04-19 01:45:00,54.2,39.7,30.16,North,11,8.0,12.0,58,0.00,,,0.00,Wunderground v.1.15,2014-04-19 05:45:00,
2014-04-19 01:55:00,53.6,39.6,30.15,North,5,8.0,9.0,59,0.00,,,0.00,Wunderground v.1.15,2014-04-19 05:55:00,
2014-04-19 02:05:00,53.0,39.5,30.15,North,5,7.0,9.0,60,0.00,,,0.00,Wunderground v.1.15,2014-04-19 06:05:00,
2014-04-19 02:15:00,52.5,39.0,30.15,North,5,8.0,9.0,60,0.00,,,0.00,Wunderground v.1.15,2014-04-19 06:15:00,
2014-04-19 02:20:00,52.3,38.8,30.15,North,350,8.0,8.0,60,0.00,,,0.00,Wunderground v.1.15,2014-04-19 06:20:00,
2014-04-19 02:30:00,52.0,39.0,30.15,North,360,8.0,8.0,61,0.00,,,0.00,Wunderground v.1.15,2014-04-19 06:30:00,
2014-04-19 02:35:00,51.9,38.9,30.15,North,360,8.0,9.0,61,0.00,,,0.00,Wunderground v.1.15,2014-04-19 06:35:00,
2014-04-19 02:45:00,51.6,39.0,30.15,North,5,8.0,8.0,62,0.00,,,0.00,Wunderground v.1.15,2014-04-19 06:45:00,
2014-04-19 02:55:00,51.4,39.2,30.15,North,5,8.0,8.0,63,0.00,,,0.00,Wunderground v.1.15,2014-04-19 06:55:00,
2014-04-19 03:00:00,51.1,38.9,30.15,North,355,8.0,8.0,63,0.00,,,0.00,Wunderground v.1.15,2014-04-19 07:00:00,
2014-04-19 03:10:00,50.8,39.1,30.15,North,360,7.0,8.0,64,0.00,,,0.00,Wunderground v.1.15,2014-04-19 07:10:00,
2014-04-19 03:15:00,50.7,39.0,30.15,North,5,6.0,8.0,64,0.00,,,0.00,Wunderground v.1.15,2014-04-19 07:15:00,
2014-04-19 03:25:00,50.3,39.0,30.15,North,5,6.0,8.0,65,0.00,,,0.00,Wunderground v.1.15,2014-04-19 07:25:00,
2014-04-19 03:30:00,50.1,38.8,30.15,North,360,7.0,7.0,65,0.00,,,0.00,Wunderground v.1.15,2014-04-19 07:30:00,
2014-04-19 03:40:00,49.8,38.9,30.15,North,5,4.0,4.0,66,0.00,,,0.00,Wunderground v.1.15,2014-04-19 07:40:00,
2014-04-19 03:50:00,49.4,38.9,30.15,North,355,4.0,4.0,67,0.00,,,0.00,Wunderground v.1.15,2014-04-19 07:50:00,
2014-04-19 04:00:00,48.9,38.8,30.15,North,355,4.0,5.0,68,0.00,,,0.00,Wunderground v.1.15,2014-04-19 08:00:00,
2014-04-19 04:05:00,48.6,38.9,30.15,North,351,4.0,5.0,69,0.00,,,0.00,Wunderground v.1.15,2014-04-19 08:05:00,
2014-04-19 04:15:00,48.3,39.0,30.15,North,360,5.0,6.0,70,0.00,,,0.00,Wunderground v.1.15,2014-04-19 08:15:00,
2014-04-19 04:20:00,48.1,38.8,30.15,North,360,6.0,6.0,70,0.00,,,0.00,Wunderground v.1.15,2014-04-19 08:20:00,
2014-04-19 04:30:00,47.9,38.9,30.16,North,5,6.0,6.0,71,0.00,,,0.00,Wunderground v.1.15,2014-04-19 08:30:00,
2014-04-19 04:35:00,47.8,39.2,30.16,North,360,6.0,6.0,72,0.00,,,0.00,Wunderground v.1.15,2014-04-19 08:35:00,
2014-04-19 04:45:00,47.6,39.0,30.16,North,5,6.0,6.0,72,0.00,,,0.00,Wunderground v.1.15,2014-04-19 08:45:00,
2014-04-19 04:55:00,47.4,39.2,30.16,North,5,5.0,6.0,73,0.00,,,0.00,Wunderground v.1.15,2014-04-19 08:55:00,
2014-04-19 05:05:00,47.2,39.3,30.16,North,5,7.0,9.0,74,0.00,,,0.00,Wunderground v.1.15,2014-04-19 09:05:00,
2014-04-19 05:10:00,47.1,39.2,30.16,North,5,7.0,10.0,74,0.00,,,0.00,Wunderground v.1.15,2014-04-19 09:10:00,
2014-04-19 05:20:00,46.8,39.3,30.16,North,5,7.0,7.0,75,0.00,,,0.00,Wunderground v.1.15,2014-04-19 09:20:00,
2014-04-19 05:30:00,46.4,39.2,30.16,North,5,6.0,6.0,76,0.00,,,0.00,Wunderground v.1.15,2014-04-19 09:30:00,
2014-04-19 05:35:00,46.2,39.4,30.16,North,5,7.0,8.0,77,0.00,,,0.00,Wunderground v.1.15,2014-04-19 09:35:00,
2014-04-19 05:45:00,46.0,39.5,30.16,North,9,7.0,7.0,78,0.00,,,0.00,Wunderground v.1.15,2014-04-19 09:45:00,
2014-04-19 05:50:00,45.9,39.8,30.16,North,9,6.0,6.0,79,0.00,,,0.00,Wunderground v.1.15,2014-04-19 09:50:00,
2014-04-19 06:00:00,45.8,39.7,30.17,North,11,6.0,7.0,79,0.00,,,0.00,Wunderground v.1.15,2014-04-19 10:00:00,
2014-04-19 06:10:00,45.7,39.9,30.17,North,11,5.0,5.0,80,0.00,,,0.00,Wunderground v.1.15,2014-04-19 10:10:00,
2014-04-19 06:20:00,45.7,40.2,30.18,North,11,5.0,5.0,81,0.00,,,0.00,Wunderground v.1.15,2014-04-19 10:20:00,
2014-04-19 06:30:00,45.5,40.3,30.18,NNE,12,5.0,5.0,82,0.00,,,0.00,Wunderground v.1.15,2014-04-19 10:30:00,
2014-04-19 06:40:00,45.2,40.3,30.18,NNE,13,6.0,6.0,83,0.00,,,0.00,Wunderground v.1.15,2014-04-19 10:40:00,
2014-04-19 06:50:00,45.3,40.4,30.19,NNE,19,5.0,8.0,83,0.00,,,0.00,Wunderground v.1.15,2014-04-19 10:50:00,